Theta_e
334 331 330 328 326 322 319 316 315 317 316 316 316 316 316 315 314 313 308 308 307 306 307 311 312 312 312 311 310 310 311 311 308 307 306 307 308 307 305 301 302 300 300
334 332 330 329 326 324 320 317 316 316 316 315 315 315 315 314 314 313 310 309 305 306 309 311 312 312 311 310 309 309 309 309 308 306 305 303 303 304 300 301 300 299 298
334 332 331 329 327 325 322 318 317 316 315 314 314 314 314 314 313 313 310 306 307 310 309 310 312 311 310 309 308 308 307 306 306 303 302 300 300 298 299 299 298 297 295
334 333 331 330 328 326 323 319 317 316 315 314 314 315 315 315 314 314 313 310 311 311 311 311 311 310 309 309 307 307 306 302 301 298 297 296 296 295 296 296 295 294 293
333 333 331 330 328 326 324 320 317 316 315 315 315 316 315 315 315 314 313 312 312 312 311 311 310 309 308 309 308 307 305 298 296 295 294 294 294 294 294 293 293 293 293
333 333 331 329 328 327 325 321 318 317 316 315 315 316 316 315 316 315 314 313 312 311 311 309 309 309 309 308 307 304 298 294 293 293 293 292 292 292 292 292 292 293 293
330 333 332 329 328 327 325 321 318 317 316 314 315 316 316 316 316 316 315 314 313 311 309 308 308 308 308 306 304 299 294 292 292 292 292 292 292 291 291 292 292 292 293
327 331 332 329 327 327 324 321 319 318 316 314 315 317 317 316 316 316 316 315 314 312 309 308 309 308 306 305 300 294 292 292 292 292 292 291 291 291 291 291 291 291 291
328 330 332 329 327 327 325 322 320 318 316 314 315 317 316 316 316 317 317 315 313 309 308 308 308 306 305 300 293 293 291 291 291 291 291 291 291 291 291 291 290 290 290
329 330 331 329 328 327 325 323 321 318 316 315 316 316 316 315 316 318 316 313 310 307 308 308 306 305 300 294 291 291 291 290 291 290 290 290 290 289 290 290 290 290 290
325 328 330 328 327 326 325 323 321 319 317 316 316 316 315 316 316 315 313 310 308 309 308 306 305 300 294 291 290 289 290 289 289 289 289 289 289 289 289 290 289 289 289
323 323 323 324 325 325 325 323 322 320 318 317 316 316 316 316 314 312 310 308 309 308 307 305 300 294 291 289 288 289 288 289 288 288 288 289 288 289 290 289 289 288 288
322 321 320 321 322 322 322 322 321 320 318 317 316 316 314 312 310 309 308 309 308 307 305 300 294 291 289 289 288 288 288 288 288 288 288 288 287 288 288 287 287 288 287
321 320 320 320 320 320 319 320 320 318 317 315 315 313 311 310 309 308 308 308 307 304 300 295 291 289 288 288 288 288 288 288 288 287 287 287 287 285 285 285 286 286 285
320 319 319 318 318 317 317 317 317 316 314 314 313 312 310 308 308 308 308 306 303 300 295 291 289 289 289 287 286 287 288 287 287 287 287 286 285 284 284 283 284 284 284
319 318 317 317 316 315 315 314 314 313 313 312 311 309 307 307 307 307 306 304 300 294 291 290 289 289 288 286 286 285 286 287 287 287 287 286 285 285 285 284 283 283 284
319 317 316 315 314 314 313 312 312 312 311 310 308 305 304 306 307 306 304 299 294 292 291 290 289 289 288 285 285 285 286 287 287 287 286 286 286 285 285 283 282 284 284
319 316 315 314 313 312 311 311 310 310 309 307 304 302 304 306 305 302 298 294 292 292 291 290 289 289 287 285 285 285 286 287 287 286 286 286 285 284 284 282 282 284 284
319 316 314 313 312 311 310 309 309 308 306 304 301 301 306 303 299 296 294 292 292 291 290 289 288 288 287 284 284 284 285 286 286 286 285 285 284 283 282 281 281 282 283
319 316 314 312 311 310 309 308 307 306 304 301 300 300 298 297 295 294 292 292 291 290 289 288 288 286 286 284 284 283 284 285 285 285 285 284 283 282 281 280 280 281 282
317 315 313 311 310 309 308 307 306 304 302 300 298 297 296 295 293 292 291 290 290 289 288 287 287 286 285 284 283 282 282 283 282 283 284 284 283 282 280 280 280 280 279
316 313 311 310 309 308 307 307 305 303 300 298 297 296 294 292 292 290 289 289 289 289 288 288 287 286 285 284 283 283 282 281 282 282 283 282 281 280 280 280 279 279 280
314 312 310 309 308 307 307 306 304 301 298 297 296 294 292 291 291 290 289 289 289 289 288 288 287 287 286 285 284 283 282 282 281 281 281 280 280 280 280 279 279 279 280
313 311 310 308 307 306 306 306 302 299 298 296 295 293 292 291 290 289 289 289 289 288 288 287 287 287 286 285 285 284 283 282 282 281 280 280 280 280 279 279 279 279 279
311 310 309 307 306 306 306 303 299 298 297 295 294 293 291 290 289 289 288 288 288 288 288 287 287 287 286 285 284 281 279 279 279 279 279 280 280 280 279 279 279 279 279
311 310 309 307 306 305 304 300 298 297 296 294 293 292 291 290 289 288 287 287 287 286 285 286 285 284 283 282 280 279 279 278 278 279 280 280 280 280 279 279 279 278 278
Wind_Speed
23 24 24 24 23 21 20 19 19 19 17 15 14 13 12 11 10 9 10 9 7 5 4 3 4 4 5 7 9 9 10 12 15 14 18 13 10 2 9 19 12 14 15
25 26 27 26 25 23 21 20 20 21 18 15 14 13 13 12 10 10 10 8 7 5 3 4 2 2 4 7 10 11 12 13 14 16 14 16 10 7 20 7 12 14 17
28 29 30 29 27 25 24 22 22 22 20 17 16 15 14 13 12 11 9 9 8 6 5 4 4 4 3 5 9 12 13 15 12 15 13 11 13 22 8 11 15 17 18
27 30 31 32 30 27 26 24 23 23 21 20 18 18 16 14 12 12 10 10 9 7 6 6 5 5 4 6 8 13 13 13 12 13 11 10 13 16 15 14 17 16 16
27 31 32 32 31 29 27 26 25 24 23 23 19 19 15 13 13 13 13 11 10 8 8 6 5 5 3 11 14 15 18 11 11 11 12 12 11 11 14 19 18 16 16
25 29 29 30 30 31 29 30 28 25 24 23 22 20 18 15 15 15 13 11 9 9 8 6 4 7 10 12 13 14 15 14 10 10 10 10 11 12 13 15 16 18 17
22 29 31 32 32 32 32 34 29 27 26 25 23 21 18 17 16 16 13 12 10 8 7 5 7 8 11 13 11 14 12 11 10 9 8 8 8 9 10 13 14 17 17
18 27 31 31 31 31 30 30 29 28 27 26 24 21 19 18 16 15 12 12 10 9 10 11 9 9 12 11 12 9 9 10 8 8 8 8 8 8 9 11 13 16 17
13 22 28 29 30 29 29 32 31 29 29 28 25 23 22 18 17 15 14 11 13 13 12 10 8 10 10 9 9 8 8 8 7 7 8 8 8 8 8 9 10 13 17
10 19 25 27 27 27 26 29 28 30 29 26 25 23 22 22 17 16 14 16 15 12 11 7 8 9 9 9 7 5 8 6 6 7 8 8 8 8 9 10 10 11 14
12 14 18 22 24 24 25 25 27 27 24 25 23 23 23 19 20 18 18 16 14 14 8 8 8 7 5 7 7 6 6 6 7 7 8 8 10 9 9 10 11 12 13
11 13 15 17 19 21 21 22 25 25 25 24 25 22 22 24 24 20 16 16 15 11 9 8 6 4 5 7 5 5 5 5 6 7 8 8 8 9 10 11 12 13 14
12 12 15 16 18 19 20 21 23 25 24 24 23 24 24 25 21 19 18 16 13 9 8 6 5 4 5 5 5 4 4 5 6 7 7 8 9 9 11 12 11 12 14
14 14 16 17 17 18 19 20 22 26 26 24 24 23 22 22 21 20 18 14 11 8 7 6 5 5 3 2 3 3 4 5 6 7 7 7 7 10 12 11 11 13 16
17 18 18 18 18 18 19 20 21 23 24 25 24 23 23 23 21 19 16 13 10 8 8 6 5 4 2 4 3 1 3 5 5 7 8 9 15 18 15 14 12 14 14
19 19 19 19 19 19 19 21 22 23 24 25 24 23 23 22 21 18 16 12 10 8 7 5 4 2 6 4 5 4 2 5 5 7 8 9 14 13 17 20 25 16 18
22 22 22 21 20 20 21 22 23 24 25 25 24 23 23 22 20 17 14 11 9 8 7 6 5 5 10 5 5 5 3 5 6 7 8 9 9 14 12 16 18 16 18
23 24 23 22 21 21 21 22 23 24 25 25 24 24 23 22 19 15 12 10 9 8 7 6 6 5 9 6 6 6 6 6 8 9 9 9 9 19 21 24 18 16 15
23 24 23 23 23 23 24 25 24 25 25 25 24 24 22 19 17 14 12 10 9 9 8 7 6 5 11 6 7 6 4 6 8 10 10 12 12 18 20 22 17 17 14
24 25 25 25 25 26 26 27 26 26 25 23 23 21 19 17 15 13 12 11 10 9 8 7 6 8 9 7 7 7 4 6 9 9 9 15 20 23 24 23 19 17 15
23 25 26 27 27 28 28 28 27 26 24 23 21 20 18 16 14 13 12 11 10 10 8 7 6 5 6 11 8 8 5 7 9 8 8 12 21 25 22 20 18 16 21
24 25 26 25 26 28 29 29 27 26 25 24 22 19 17 15 15 12 11 11 10 9 8 8 7 5 6 10 12 15 11 12 7 9 10 14 21 20 17 17 16 16 13
23 25 25 27 26 28 28 29 28 28 27 25 22 20 18 16 13 12 12 11 10 9 8 8 7 7 7 8 12 16 16 18 17 10 16 20 17 17 13 16 16 13 12
23 26 27 29 29 29 27 27 30 29 28 25 23 21 18 16 14 13 11 10 9 9 10 8 7 7 7 6 6 6 8 12 13 15 18 12 14 16 16 15 13 12 14
23 26 29 30 31 31 29 29 29 30 28 26 24 21 18 17 15 12 11 10 10 12 10 8 7 8 7 13 17 16 15 14 16 16 11 9 12 13 13 12 13 13 13
23 27 28 29 31 32 31 30 28 28 28 27 25 22 19 18 16 15 16 20 18 17 18 15 12 13 14 15 14 15 15 14 14 10 7 11 11 12 12 13 14 14 14
Wind_Direction
187 185 184 182 180 176 174 176 175 179 171 171 170 170 169 165 158 163 166 163 164 154 131 92 63 50 31 12 10 10 356 353 341 349 344 342 319 323 330 322 324 326 333
185 186 185 184 183 180 179 178 178 178 176 177 175 175 175 167 166 170 173 182 179 169 139 133 112 104 10 2 1 5 360 355 347 351 348 342 338 303 329 327 330 327 325
188 187 188 187 186 185 183 182 181 180 178 180 176 172 170 169 171 176 178 188 182 182 192 214 255 332 12 3 1 352 0 353 349 351 348 345 329 324 330 331 322 328 327
195 193 191 189 189 190 184 184 182 182 182 179 183 180 179 180 182 180 180 188 195 204 226 257 280 286 336 338 348 340 354 350 349 346 338 330 321 326 320 321 324 323 330
202 197 196 193 191 188 187 185 184 185 185 185 187 183 181 181 186 180 190 188 202 218 239 255 268 289 300 323 329 333 335 353 351 346 338 336 332 323 319 320 326 331 331
208 200 200 196 192 190 188 186 187 188 187 188 187 188 184 186 186 185 182 185 198 218 231 239 251 271 305 318 331 336 334 343 353 349 347 341 334 329 327 324 327 326 332
214 202 197 195 191 190 191 193 187 189 189 192 188 191 190 189 190 190 188 188 190 190 221 216 263 285 306 316 328 330 342 344 352 351 350 342 332 329 329 326 324 326 328
220 203 197 192 192 192 191 190 191 192 192 193 190 193 190 189 191 193 195 193 195 192 213 223 259 294 306 315 327 331 348 342 350 343 346 344 332 330 328 326 327 326 326
201 198 194 191 193 195 194 193 194 191 195 197 189 192 188 190 186 195 192 188 189 202 220 241 271 285 298 316 340 338 343 353 344 346 336 340 333 328 326 325 325 324 321
189 189 191 190 195 196 197 200 195 190 198 196 191 192 189 186 190 186 181 187 195 199 230 251 270 287 310 322 343 350 333 353 342 340 342 343 328 335 318 321 322 318 313
176 191 191 193 194 193 192 194 194 192 192 192 188 191 188 180 193 182 189 195 195 223 230 250 272 297 307 320 330 345 340 353 349 348 341 340 334 328 328 321 318 315 313
170 178 187 190 192 191 192 194 191 190 193 189 187 184 176 184 192 189 187 192 212 215 235 258 270 276 299 315 328 337 340 354 353 345 343 335 333 335 322 314 315 313 315
172 172 174 179 183 182 183 186 185 183 188 185 182 177 182 190 185 183 192 204 209 221 243 243 248 270 292 305 330 349 359 354 345 338 336 333 335 329 312 315 313 314 312
178 173 169 170 170 171 170 172 172 180 176 177 179 176 174 175 180 188 196 202 210 216 228 232 252 278 281 318 355 352 351 344 330 332 329 327 320 316 315 317 315 313 318
187 178 172 168 168 165 164 166 172 174 172 172 176 173 170 177 184 190 192 196 200 216 228 237 253 252 245 266 286 304 335 330 329 326 321 316 304 320 332 331 319 323 321
195 186 179 173 170 168 165 166 168 170 169 171 173 170 172 179 184 188 189 198 210 216 225 224 217 202 230 299 311 316 331 322 329 323 318 319 325 322 327 327 324 341 327
197 191 184 178 173 171 169 167 168 165 166 169 170 168 173 181 183 185 192 203 203 206 209 198 199 183 256 299 318 318 331 321 313 317 316 315 313 310 289 306 315 323 316
196 192 186 179 173 169 166 166 165 165 167 168 168 169 176 177 181 183 187 191 193 194 188 187 182 189 264 306 314 325 347 317 310 312 310 310 306 295 303 317 322 320 315
195 189 185 178 171 169 167 164 163 165 167 167 168 172 172 173 173 173 182 180 178 176 183 186 187 193 273 298 315 322 349 302 307 304 309 292 306 289 310 321 322 318 318
188 183 180 174 171 169 167 163 165 167 168 168 166 164 167 173 172 180 174 173 174 177 184 184 194 207 252 287 308 318 330 315 299 310 311 299 300 304 314 318 317 317 309
182 180 177 175 172 170 166 165 165 168 166 162 161 166 171 171 176 173 172 169 173 180 184 191 201 210 198 283 304 320 324 299 306 311 309 302 295 298 309 312 314 307 315
178 178 177 175 173 169 167 167 167 166 163 163 164 169 172 166 172 179 178 172 179 183 193 200 214 233 249 285 309 326 330 328 322 316 309 289 298 307 312 317 322 322 329
181 180 178 175 173 173 172 169 168 165 164 167 170 169 170 174 182 177 177 175 183 193 204 216 221 234 255 289 303 315 335 338 341 315 301 312 325 333 340 318 329 344 339
187 182 180 178 175 175 175 173 170 168 169 169 169 172 178 179 179 176 181 183 193 203 214 220 228 237 250 262 268 295 314 317 314 296 305 325 333 330 332 332 326 316 314
196 189 186 183 179 175 175 178 173 171 169 171 172 176 182 175 177 173 186 191 207 207 211 222 231 235 238 245 254 286 302 302 306 314 331 322 311 317 325 326 323 320 320
200 196 193 187 182 177 175 178 177 175 175 174 176 177 181 174 179 184 198 201 209 223 217 220 222 248 247 261 280 299 313 317 321 335 340 315 316 320 328 326 322 321 319